Time,TemperatureF,DewpointF,PressureIn,WindDirection,WindDirectionDegrees,WindSpeedMPH,WindSpeedGustMPH,Humidity,HourlyPrecipIn,Conditions,Clouds,dailyrainin,SoftwareType,DateUTC
2016-07-26 00:02:00,70.0,60.2,29.75,NW,319,2.0,3.0,71,0.00,,,0.00,Wunderground v.1.15,2016-07-26 04:02:00,
2016-07-26 00:08:00,70.2,60.7,29.75,West,277,2.0,4.0,72,0.00,,,0.00,Wunderground v.1.15,2016-07-26 04:08:00,
2016-07-26 00:14:00,70.1,60.7,29.75,NW,305,2.0,5.0,72,0.00,,,0.00,Wunderground v.1.15,2016-07-26 04:14:00,
2016-07-26 00:20:00,70.0,60.6,29.75,SW,229,2.0,3.0,72,0.00,,,0.00,Wunderground v.1.15,2016-07-26 04:20:00,
2016-07-26 00:26:00,69.9,60.1,29.75,WNW,282,2.0,3.0,71,0.00,,,0.00,Wunderground v.1.15,2016-07-26 04:26:00,
2016-07-26 00:32:00,69.8,59.6,29.75,SW,232,1.0,2.0,70,0.00,,,0.00,Wunderground v.1.15,2016-07-26 04:32:00,
2016-07-26 00:38:00,69.8,59.6,29.75,West,261,2.0,5.0,70,0.00,,,0.00,Wunderground v.1.15,2016-07-26 04:38:00,
2016-07-26 00:44:00,69.8,59.6,29.75,NNW,329,2.0,2.0,70,0.00,,,0.00,Wunderground v.1.15,2016-07-26 04:44:00,
2016-07-26 00:50:00,69.9,60.1,29.75,WSW,243,2.0,2.0,71,0.00,,,0.00,Wunderground v.1.15,2016-07-26 04:50:00,
2016-07-26 00:56:00,69.9,60.1,29.75,West,262,2.0,4.0,71,0.00,,,0.00,Wunderground v.1.15,2016-07-26 04:56:00,
2016-07-26 01:02:00,70.2,61.5,29.75,WSW,252,3.0,3.0,74,0.00,,,0.00,Wunderground v.1.15,2016-07-26 05:02:00,
2016-07-26 01:08:00,70.3,62.0,29.75,SSW,208,3.0,3.0,75,0.00,,,0.00,Wunderground v.1.15,2016-07-26 05:08:00,
2016-07-26 01:14:00,70.2,61.9,29.75,WSW,249,2.0,3.0,75,0.00,,,0.00,Wunderground v.1.15,2016-07-26 05:14:00,
2016-07-26 01:20:00,70.1,61.8,29.75,SSW,207,1.0,1.0,75,0.00,,,0.00,Wunderground v.1.15,2016-07-26 05:20:00,
2016-07-26 01:26:00,70.0,61.7,29.75,SSW,205,1.0,1.0,75,0.00,,,0.00,Wunderground v.1.15,2016-07-26 05:26:00,
2016-07-26 01:32:00,70.1,61.8,29.75,SW,227,2.0,4.0,75,0.00,,,0.00,Wunderground v.1.15,2016-07-26 05:32:00,
2016-07-26 01:38:00,70.3,62.4,29.75,SSW,196,2.0,4.0,76,0.00,,,0.00,Wunderground v.1.15,2016-07-26 05:38:00,
2016-07-26 01:44:00,70.3,62.7,29.74,WSW,240,2.0,5.0,77,0.00,,,0.00,Wunderground v.1.15,2016-07-26 05:44:00,
2016-07-26 01:50:00,70.2,62.6,29.74,SSW,203,2.0,2.0,77,0.00,,,0.00,Wunderground v.1.15,2016-07-26 05:50:00,
2016-07-26 01:56:00,70.1,62.2,29.74,South,189,1.0,4.0,76,0.00,,,0.00,Wunderground v.1.15,2016-07-26 05:56:00,
2016-07-26 02:02:00,69.8,61.5,29.74,SW,223,1.0,1.0,75,0.00,,,0.00,Wunderground v.1.15,2016-07-26 06:02:00,
2016-07-26 02:08:00,69.6,60.9,29.74,SSW,201,1.0,5.0,74,0.00,,,0.00,Wunderground v.1.15,2016-07-26 06:08:00,
2016-07-26 02:14:00,69.5,60.5,29.74,SW,220,2.0,4.0,73,0.00,,,0.00,Wunderground v.1.15,2016-07-26 06:14:00,
2016-07-26 02:20:00,69.6,60.9,29.74,WSW,251,2.0,2.0,74,0.00,,,0.00,Wunderground v.1.15,2016-07-26 06:20:00,
2016-07-26 02:26:00,69.8,61.5,29.74,SW,222,2.0,4.0,75,0.00,,,0.00,Wunderground v.1.15,2016-07-26 06:26:00,
2016-07-26 02:32:00,69.9,61.6,29.74,WSW,258,2.0,2.0,75,0.00,,,0.00,Wunderground v.1.15,2016-07-26 06:32:00,
2016-07-26 02:38:00,69.9,62.0,29.74,SW,231,1.0,2.0,76,0.00,,,0.00,Wunderground v.1.15,2016-07-26 06:38:00,
2016-07-26 02:44:00,70.0,62.1,29.74,SSW,207,1.0,2.0,76,0.00,,,0.00,Wunderground v.1.15,2016-07-26 06:44:00,
2016-07-26 02:50:00,70.0,62.1,29.74,South,181,2.0,4.0,76,0.00,,,0.00,Wunderground v.1.15,2016-07-26 06:50:00,
2016-07-26 02:56:00,70.1,62.6,29.74,SW,227,1.0,4.0,77,0.00,,,0.00,Wunderground v.1.15,2016-07-26 06:56:00,
2016-07-26 03:02:00,70.2,63.0,29.74,WSW,244,1.0,2.0,78,0.00,,,0.00,Wunderground v.1.15,2016-07-26 07:02:00,
2016-07-26 03:08:00,70.2,63.0,29.74,SSW,204,2.0,4.0,78,0.00,,,0.00,Wunderground v.1.15,2016-07-26 07:08:00,
2016-07-26 03:14:00,70.2,63.0,29.74,SW,220,1.0,2.0,78,0.00,,,0.00,Wunderground v.1.15,2016-07-26 07:14:00,